Seward, AK

3:00 AM AKDT on August 20, 2017 (GMT -0800)
Seward

Weather History for PAWD - June, 2013

Change the Weather History Date:

Wednesday, June 19, 2013

  Actual Average Record
Temperature  
Mean Temperature 52 °F -  
Max Temperature 59 °F 57 °F 73 °F (2004)
Min Temperature 48 °F 46 °F 41 °F (1956)
Degree Days  
Heating Degree Days 12    
Growing Degree Days 2 (Base 50)    
Moisture  
Dew Point 47 °F    
Average Humidity 80    
Maximum Humidity 93    
Minimum Humidity 67    
Precipitation  
Precipitation 0.19 in - - ()
Sea Level Pressure  
Sea Level Pressure 29.99 in    
Wind  
Wind Speed 7 mph (SSE)    
Max Wind Speed 15 mph    
Max Gust Speed 23 mph    
Visibility 10 miles    
Events Rain    
Averages and records for this station are not official NWS values.
T = Trace of Precipitation, MM = Missing Value Source: NWS Daily Summary

Daily Weather History Graph

Daily Weather History Graph

Search for Another Location

Airport or City:

Trip Planner

Search our weather history database for the weather conditions in past years. The results will help you decide how hot, cold, wet, or windy it might be!

Date:

Astronomy

Jun. 19, 2013 Rise Set
Actual Time 4:31 AM AKDT 11:26 PM AKDT
Civil Twilight 2:41 AM AKDT 1:17 AM AKDT
Nautical Twilight Sun does not set Sun does not set
Astronomical Twilight Sun does not set Sun does not set
Moon 6:40 PM AKDT (6/19) 2:25 AM AKDT (6/19)
Length of Visible Light 22h 36m
Length of Day
18h 54m
Waxing Gibbous, 82% of the Moon is Illuminated
Jun 19
Waxing Gibbous
Jun 23
Full
Jun 29
Last Quarter
Jul 7
New
Jul 15
First Quarter

Hourly Weather History & Observations

Time (AKDT) Temp. Dew Point Humidity Pressure Visibility Wind Dir Wind Speed Gust Speed Precip Events Conditions
12:53 AM 52.0 °F 48.0 °F 86% 29.94 in 10.0 mi North 8.1 mph - N/A   Clear
1:53 AM 52.0 °F 46.9 °F 83% 29.93 in 10.0 mi North 8.1 mph - N/A   Clear
2:53 AM 53.1 °F 46.0 °F 77% 29.92 in 10.0 mi North 12.7 mph - 0.04 in   Clear
3:53 AM 53.1 °F 45.0 °F 74% 29.91 in 10.0 mi North 10.4 mph - N/A   Overcast
4:53 AM 55.0 °F 45.0 °F 69% 29.90 in 10.0 mi North 8.1 mph 17.3 mph N/A   Overcast
5:53 AM 54.0 °F 46.0 °F 75% 29.91 in 9.0 mi Calm Calm - 0.00 in Rain Light Rain
6:53 AM 52.0 °F 46.9 °F 83% 29.90 in 10.0 mi North 8.1 mph - 0.10 in   Overcast
7:53 AM 55.9 °F 46.9 °F 72% 29.89 in 10.0 mi SSE 4.6 mph - 0.00 in   Overcast
8:53 AM 55.0 °F 48.9 °F 80% 29.88 in 10.0 mi South 3.5 mph - N/A   Overcast
9:53 AM 55.0 °F 48.0 °F 77% 29.89 in 10.0 mi SW 5.8 mph - N/A   Overcast
10:53 AM 57.0 °F 50.0 °F 77% 29.89 in 10.0 mi South 5.8 mph - 0.02 in   Overcast
11:53 AM 57.9 °F 46.9 °F 67% 29.92 in 10.0 mi SSE 9.2 mph 23.0 mph N/A   Overcast
12:53 PM 55.0 °F 48.9 °F 80% 29.95 in 10.0 mi South 6.9 mph 19.6 mph 0.00 in Rain Light Rain
1:53 PM 55.0 °F 48.9 °F 80% 29.96 in 10.0 mi SSE 15.0 mph 23.0 mph 0.03 in   Overcast
2:53 PM 55.9 °F 48.0 °F 75% 29.97 in 10.0 mi South 9.2 mph 19.6 mph N/A   Overcast
3:53 PM 55.0 °F 48.0 °F 77% 30.00 in 10.0 mi South 8.1 mph - N/A   Overcast
4:53 PM 55.0 °F 48.0 °F 77% 30.03 in 10.0 mi South 10.4 mph 19.6 mph N/A   Overcast
5:43 PM 53.6 °F 46.4 °F 77% 30.04 in 10.0 mi South 5.8 mph - N/A   Overcast
5:53 PM 54.0 °F 46.9 °F 77% 30.04 in 10.0 mi South 8.1 mph - N/A   Overcast
6:34 PM 53.6 °F 46.4 °F 77% 30.05 in 10.0 mi SSE 11.5 mph - N/A   Overcast
6:53 PM 54.0 °F 48.0 °F 80% 30.06 in 10.0 mi SSE 10.4 mph - N/A   Overcast
7:20 PM 53.6 °F 46.4 °F 77% 30.06 in 10.0 mi SSE 11.5 mph - N/A   Overcast
7:32 PM 53.6 °F 46.4 °F 77% 30.06 in 10.0 mi SSE 10.4 mph - N/A   Overcast
7:53 PM 53.1 °F 46.9 °F 80% 30.06 in 10.0 mi SE 9.2 mph - N/A   Overcast
8:53 PM 53.1 °F 48.0 °F 83% 30.07 in 10.0 mi SSE 3.5 mph - N/A   Overcast
9:30 PM 51.8 °F 46.4 °F 82% 30.06 in 10.0 mi Calm Calm - N/A   Mostly Cloudy
9:53 PM 51.1 °F 46.9 °F 86% 30.06 in 10.0 mi Calm Calm - N/A   Mostly Cloudy
10:02 PM 51.8 °F 46.4 °F 82% 30.05 in 10.0 mi Calm Calm - N/A   Scattered Clouds
10:35 PM 51.8 °F 46.4 °F 82% 30.05 in 10.0 mi Calm Calm - N/A   Mostly Cloudy
10:53 PM 50.0 °F 46.9 °F 89% 30.06 in 10.0 mi Calm Calm - N/A   Overcast
11:27 PM 48.2 °F 46.4 °F 93% 30.05 in 10.0 mi Calm Calm - N/A   Overcast
11:45 PM 50.0 °F 46.4 °F 87% 30.05 in 10.0 mi Calm Calm - N/A   Overcast
11:53 PM 50.0 °F 46.9 °F 89% 30.06 in 10.0 mi Calm Calm - N/A   Overcast